CDT,Max TemperatureF,Mean TemperatureF,Min TemperatureF,Max Dew PointF,MeanDew PointF,Min DewpointF,Max Humidity, Mean Humidity, Min Humidity, Max Sea Level PressureIn, Mean Sea Level PressureIn, Min Sea Level PressureIn, Max VisibilityMiles, Mean VisibilityMiles, Min VisibilityMiles, Max Wind SpeedMPH, Mean Wind SpeedMPH, Max Gust SpeedMPH,PrecipitationIn, CloudCover, Events, WindDirDegrees
2013-10-1,85,76,67,72,69,64,91,82,59,30.07,30.02,29.98,10,9,5,13,1,,0.00,2,Rain-Thunderstorm,53
2013-10-2,87,80,72,73,71,69,91,80,58,30.08,30.04,29.99,10,10,5,8,2,,0.02,3,Rain-Thunderstorm,114
2013-10-3,90,80,70,74,70,68,91,77,49,30.07,30.01,29.96,10,7,0,13,2,20,0.00,5,Fog,158
2013-10-4,92,80,69,74,70,66,91,78,43,30.06,30.03,29.98,10,9,1,21,4,28,0.16,2,Rain-Thunderstorm,145
2013-10-5,88,79,70,75,71,65,91,78,47,30.03,29.98,29.93,10,8,0,15,6,21,0.36,3,Fog-Rain,148
2013-10-6,86,74,61,74,67,54,91,79,57,29.98,29.90,29.85,10,9,3,16,3,20,0.00,2,Rain-Thunderstorm,346
2013-10-7,76,66,55,56,52,47,88,67,39,30.07,30.01,29.97,10,10,10,15,5,21,0.00,0,,360
2013-10-8,79,66,52,60,53,50,91,72,39,30.08,30.04,30.00,10,10,10,9,3,,0.00,0,Thunderstorm,359
2013-10-9,85,68,52,68,59,50,91,76,45,30.12,30.07,30.03,10,10,7,9,1,,0.00,2,Thunderstorm,48
2013-10-10,83,74,64,68,66,62,91,82,53,30.14,30.08,30.02,10,6,0,5,1,,0.00,6,Fog,162
2013-10-11,88,76,64,72,66,62,92,77,44,30.08,30.03,29.98,10,6,0,10,1,,0.00,5,Fog-Thunderstorm,166
2013-10-12,89,76,64,72,66,62,92,73,42,30.11,30.06,30.01,10,7,0,8,1,,0.00,4,Fog-Thunderstorm,191
2013-10-13,89,78,67,71,67,63,91,75,42,30.19,30.13,30.08,10,10,5,8,1,,0.00,1,,29
2013-10-14,86,76,65,68,63,57,90,71,36,30.15,30.10,30.03,10,9,4,8,1,,0.00,0,Thunderstorm,79
2013-10-15,86,74,62,68,64,59,91,74,43,30.08,30.03,29.96,10,9,5,10,1,,0.00,1,,174
2013-10-16,85,75,66,70,67,64,90,77,53,30.03,29.98,29.93,10,10,5,8,2,,0.00,5,,187
2013-10-17,74,70,64,71,65,59,90,81,68,30.03,29.98,29.93,10,10,2,10,3,,0.00,7,Rain,350
2013-10-18,73,63,54,61,56,52,91,75,48,30.09,30.02,29.96,10,10,10,10,3,,0.02,3,Rain,24
2013-10-19,73,66,57,62,58,54,91,82,59,30.05,30.00,29.94,10,9,2,9,2,,0.62,4,Rain,9
2013-10-20,74,62,51,58,52,49,91,76,44,30.11,30.05,30.00,10,10,7,7,4,,0.00,1,,12
2013-10-21,72,61,50,62,55,47,92,82,60,30.09,30.04,29.99,10,10,5,6,1,,0.01,3,Rain-Thunderstorm,31
2013-10-22,80,67,55,61,58,53,91,75,44,30.03,29.99,29.94,10,9,2,10,3,,0.01,4,Rain,354
2013-10-23,76,62,48,53,47,37,92,67,25,30.16,30.10,30.03,10,9,1,13,3,20,0.00,1,,359
2013-10-24,80,62,43,56,47,41,91,68,28,30.25,30.20,30.14,10,10,10,8,1,,0.00,0,Thunderstorm,221
2013-10-25,68,56,44,52,43,35,90,64,31,30.43,30.35,30.25,10,10,10,13,5,18,0.00,,Thunderstorm,32
2013-10-26,75,58,40,53,42,36,90,67,26,30.34,30.26,30.18,10,10,10,5,0,,0.00,0,Thunderstorm,253
2013-10-27,73,59,45,60,53,43,92,78,56,30.19,30.14,30.09,10,10,3,7,1,,0.00,1,,177
2013-10-28,84,70,55,63,59,53,92,73,44,30.21,30.16,30.10,10,9,3,8,2,,0.00,2,,174
2013-10-29,82,68,55,65,59,53,92,77,45,30.27,30.22,30.18,10,7,0,12,2,,0.00,2,Fog,145
2013-10-30,81,69,57,68,62,55,93,79,54,30.22,30.16,30.06,10,8,0,12,2,16,0.00,3,Fog,142
2013-10-31,80,74,69,70,68,66,90,80,65,30.05,29.92,29.83,10,10,2,15,6,23,0.41,5,Rain,182